DELTA 1 R/B, 341

Orbit data source: Space-Track

DELTA 1 R/B, 341 is space debris in LEO originally from a launch on Tue, 10 Jul 1962 UTC launched from the Air Force Eastern Test Range (AFETR). Debris objects in space refer to the collection of defunct objects orbiting the Earth. Examples of debris include non-operational satellites, rocket bodies, and fragments generated from explosions, collisions, or faulty payload assembly.

Loading next visibility...
Identifier
341, 1962-029B
Orbit
LEO
Last TLE update
3 days ago
Origin
Manufacturer
ABL
Mission
Spacecraft
Bus & Motor
ALTAIR, Unknown motor
Mass
24 kg wet, 24 kg dry
Launch date (UTC)
1962-07-10 (63 years ago)
Launch vehicle
Unknown
Launch site
Air Force Eastern Test Range (AFETR)
Object type
Payload
Rocket body
Debris
Shape & HBR
Cyl, 1.5 m
Radar Cross Section
0.687 m², Medium (>0.1 m² and < 1m²)

Expand to show TLE details & history

TLE from 3 days ago
0 DELTA 1 R/B
1 00341U 62029B   25180.20314022 -.00000022  00000-0 -69152-5 0  9991
2 00341  44.8002 154.4821 2426745 276.8720  69.9689  9.14321727102843
Epoch: 2025-06-29T04:52Z
TLE epoch observation values (Epoch: 2025-06-29T04:52:31.315Z)
Latitude
10.37704°
Longitude
174.40268°
Altitude
3,028.118 km
Speed
6.597 km/s
True Right ascension
11h 00m 15s
True Declination
10° 19' 51"
Sunlit
Object was in daylight at epoch
Visualization orbit readout
Latitude
43.67599°
Longitude
-128.32667°
Altitude
5,287.345 km
Speed
5.209 km/s
Apparent Right ascension
13h 25m 47s
Apparent Declination
44° 33' 03"
Sunlit
Object is in daylight
Visualization observer readout
Local Sidereal Time
15:57:28
Azimuth
292.045° WNW
Elevation
61.803°
Doppler factor
1
Orbital elements
Apogee altitude
5,628.391 km
Perigee altitude
939.024 km
Semi-major axis
9,661.845 km
Eccentricity
0.24267
Inclination
44.8002°
RAAN
154.4821°
Arg. of periapsis
276.872°
True anomaly
Unknown
Mean anomaly
69.9689°
Eccentric anomaly
Unknown
Mean motion
2.28535 °/min
Orbital period
157.52 mins
BSTAR
-0.0000069152
Loading maneuver chart data...
Loading SW <> Apogee altitude chart data...
Loading historical data...
Loading historical data...
Loading historical data...
Loading historical data...
Loading historical data...
Loading historical data...
Loading historical data...
Other satellites on launch #29 in the year 1962 (1962-07-10 UTC)

DELTA 1 R/B Visibility forecast

Observer location: undefined°, undefined°

Span
Click to sort rows by Start time (UTC) header in descending order
Start Az.
Max El. time (UTC)
Max El. Az.
Max El.
End time (UTC)
End Az.
44 mins2025-07-02 04:16:05.765Z291.836° WNW2025-07-02 04:26:05.765Z9.233° NNE44.516°2025-07-02 05:00:05.765Z93.811° ESE
60 mins2025-07-02 06:51:05.765Z294.492° NW2025-07-02 07:25:05.765Z218.212° SW44.394°2025-07-02 07:51:05.765Z135.157° SSE
44 mins2025-07-02 09:49:05.765Z295.655° NW2025-07-02 10:14:05.765Z247.897° W28.716°2025-07-02 10:33:05.765Z190.182° SSW
33 mins2025-07-02 22:03:05.765Z162.961° S2025-07-02 22:15:05.765Z111.949° ESE26.91°2025-07-02 22:36:05.765Z64.462° ENE
53 mins2025-07-03 00:44:05.765Z227.601° WSW2025-07-03 01:02:05.765Z142.916° SSE44.506°2025-07-03 01:37:05.765Z66.156° ENE
43 mins2025-07-03 03:33:05.765Z270.486° WNW2025-07-03 04:00:05.765Z4.066° NNE44.506°2025-07-03 04:16:05.765Z79.48° E
|